Find SATURN

NORAD ID: 57174 Int'l Des: NNA 2023-091 Owner: KGTU Country: RU operational
LEOCIRCULARRETROGRADESSO

当前视图

正在加载3D地球...

关于 SATURN

正在加载描述...

即将过境

Passes for default location (London). Set your location on the main map for personalized predictions.

高度历史

Loading altitude history...

两行轨道根数

1 57174U 23091J 26151.53170513 .00004286 00000-0 24059-3 0 9992
2 57174 97.5063 204.8662 0012789 198.3677 161.7094 15.13802472161113
Epoch: May 31, 2026 • Age: 10 hours

当前状态

高度 535.8 km
速度 7.59 km/s
星下点 15.00°N, 21.37°W
发射日期 Jun 27, 2023
运行时间 2.9 years
类型 other

技术详情

分类 Payload
质量 10.00 kg
干质量 10.00 kg
总质量 10.00 kg
长度 0.30 m
直径 0.20 m
跨度 0.30 m
形状 Box
制造商 KGTU
平台类型 Cubesat 6U
阶段状态 In Orbit
所有者/国家 KGTU/RU

Most Searched